This is the latest recevied weather packets stored in our database for station/object N5SRF. If no packets are shown the sender has not sent any weather packets the latest 10 day(s).
| Time | Temp. | Humidity | Pressure | Rain* | Wind** | Luminosity | Snow |
|---|---|---|---|---|---|---|---|
| 1778165296 | 15.56° C | 91% | 1021.5 hPa | 0 mm | - | 104 W/m² | - |
| 1778164994 | 15.56° C | 91% | 1021.3 hPa | 0 mm | - | 94 W/m² | - |
| 1778164690 | 15.56° C | 92% | 1021.3 hPa | 0 mm | - | 107 W/m² | - |
| 1778164388 | 15.56° C | 92% | 1021.2 hPa | 0 mm | - | 113 W/m² | - |
| 1778164083 | 15.56° C | 93% | 1021.1 hPa | 0 mm | - | 121 W/m² | - |
| 1778163780 | 15.56° C | 94% | 1021.5 hPa | 0 mm | - | 101 W/m² | - |
| 1778163476 | 15.56° C | 94% | 1021.4 hPa | 0 mm | - | 67 W/m² | - |
| 1778163174 | 15.56° C | 94% | 1021.3 hPa | 0 mm | - | 61 W/m² | - |
| 1778162870 | 15.56° C | 94% | 1021.4 hPa | 0 mm | - | 66 W/m² | - |
| 1778162567 | 15° C | 94% | 1021.5 hPa | 0 mm | - | 52 W/m² | - |
| 1778162264 | 15° C | 94% | 1021.5 hPa | 0 mm | - | 46 W/m² | - |
| 1778161962 | 15° C | 94% | 1021.5 hPa | 0 mm | - | 47 W/m² | - |
| 1778161657 | 15° C | 94% | 1021.4 hPa | 0 mm | - | 51 W/m² | - |
| 1778161354 | 15° C | 94% | 1021.4 hPa | 0 mm | - | 55 W/m² | - |
| 1778161050 | 15.56° C | 94% | 1021.2 hPa | 0 mm | - | 41 W/m² | - |
| 1778160747 | 15.56° C | 94% | 1021.5 hPa | 0 mm | - | 28 W/m² | - |
| 1778160444 | 15.56° C | 94% | 1021.2 hPa | 0 mm | - | 54 W/m² | - |
| 1778160141 | 15.56° C | 94% | 1021.2 hPa | 0 mm | - | 40 W/m² | - |
| 1778159838 | 15.56° C | 94% | 1021.4 hPa | 0 mm | - | 38 W/m² | - |
| 1778159535 | 15° C | 94% | 1021.3 hPa | 0 mm | - | 28 W/m² | - |
| 1778159232 | 15° C | 94% | 1021.2 hPa | 0 mm | - | 29 W/m² | - |
| 1778158930 | 15° C | 94% | 1021.4 hPa | 0 mm | - | 32 W/m² | - |
| 1778158628 | 15° C | 94% | 1021.1 hPa | 0 mm | - | 28 W/m² | - |
| 1778158325 | 15° C | 94% | 1020.9 hPa | 0 mm | - | 31 W/m² | - |
| 1778158021 | 15° C | 94% | 1020.7 hPa | 0 mm | - | 26 W/m² | - |
* Rain latest hour (hover to see other rain measurements)
** Current wind speed in m/s (hover to see current wind gust speed)